Time,TemperatureF,DewpointF,PressureIn,WindDirection,WindDirectionDegrees,WindSpeedMPH,WindSpeedGustMPH,Humidity,HourlyPrecipIn,Conditions,Clouds,dailyrainin,SoftwareType,DateUTC
2013-09-08 00:00:00,77.9,41.3,29.94,WSW,245,5.0,7.0,27,0.00,,---,0.00,VWS V14.01,2013-09-08 07:00:00,
2013-09-08 00:01:00,77.8,41.2,29.94,WSW,257,4.0,6.0,27,0.00,,---,0.00,VWS V14.01,2013-09-08 07:01:00,
2013-09-08 00:06:00,77.4,40.8,29.94,WSW,254,2.0,7.0,27,0.00,,---,0.00,VWS V14.01,2013-09-08 07:06:00,
2013-09-08 00:11:00,77.4,40.8,29.94,SSW,198,4.0,7.0,27,0.00,,---,0.00,VWS V14.01,2013-09-08 07:11:00,
2013-09-08 00:16:00,77.3,40.8,29.94,West,263,2.0,7.0,27,0.00,,---,0.00,VWS V14.01,2013-09-08 07:16:00,
2013-09-08 00:21:00,77.3,41.7,29.94,WSW,246,4.0,7.0,28,0.00,,---,0.00,VWS V14.01,2013-09-08 07:21:00,
2013-09-08 00:26:00,77.4,41.8,29.94,SSW,201,2.0,9.0,28,0.00,,---,0.00,VWS V14.01,2013-09-08 07:26:00,
2013-09-08 00:30:00,77.5,41.9,29.94,WSW,244,5.0,9.0,28,0.00,,---,0.00,VWS V14.01,2013-09-08 07:30:00,
2013-09-08 00:31:00,77.5,41.9,29.94,SW,224,5.0,7.0,28,0.00,,---,0.00,VWS V14.01,2013-09-08 07:31:00,
2013-09-08 00:36:00,77.8,41.2,29.94,West,279,4.0,7.0,27,0.00,,---,0.00,VWS V14.01,2013-09-08 07:36:00,
2013-09-08 00:41:00,77.7,42.0,29.94,West,269,3.0,7.0,28,0.00,,---,0.00,VWS V14.01,2013-09-08 07:41:00,
2013-09-08 00:46:00,77.7,42.0,29.94,WSW,255,5.0,7.0,28,0.00,,---,0.00,VWS V14.01,2013-09-08 07:46:00,
2013-09-08 00:51:00,77.7,42.0,29.94,SW,222,5.0,7.0,28,0.00,,---,0.00,VWS V14.01,2013-09-08 07:51:00,
2013-09-08 00:56:00,77.7,42.0,29.94,West,270,2.0,8.0,28,0.00,,---,0.00,VWS V14.01,2013-09-08 07:56:00,
2013-09-08 01:00:00,77.6,42.0,29.94,WSW,252,2.0,8.0,28,0.00,,---,0.00,VWS V14.01,2013-09-08 08:00:00,
2013-09-08 01:01:00,77.4,41.8,29.94,WNW,284,4.0,7.0,28,0.00,,---,0.00,VWS V14.01,2013-09-08 08:01:00,
2013-09-08 01:06:00,77.5,41.9,29.94,SSW,211,5.0,8.0,28,0.00,,---,0.00,VWS V14.01,2013-09-08 08:06:00,
2013-09-08 01:11:00,77.5,40.9,29.94,SW,235,5.0,8.0,27,0.00,,---,0.00,VWS V14.01,2013-09-08 08:11:00,
2013-09-08 01:15:00,77.4,41.8,29.94,WSW,257,4.0,8.0,28,0.00,,---,0.00,VWS V14.01,2013-09-08 08:15:00,
2013-09-08 01:20:00,77.3,40.8,29.94,WSW,255,3.0,8.0,27,0.00,,---,0.00,VWS V14.01,2013-09-08 08:20:00,
2013-09-08 01:25:00,77.2,40.7,29.94,WNW,284,2.0,8.0,27,0.00,,---,0.00,VWS V14.01,2013-09-08 08:25:00,
2013-09-08 01:30:00,77.3,41.7,29.93,WNW,289,3.0,6.0,28,0.00,,---,0.00,VWS V14.01,2013-09-08 08:30:00,
2013-09-08 01:35:00,77.3,40.8,29.93,West,278,3.0,7.0,27,0.00,,---,0.00,VWS V14.01,2013-09-08 08:35:00,
2013-09-08 01:40:00,77.2,41.6,29.93,NW,305,2.0,7.0,28,0.00,,---,0.00,VWS V14.01,2013-09-08 08:40:00,
2013-09-08 01:45:00,77.1,40.6,29.93,SW,236,2.0,8.0,27,0.00,,---,0.00,VWS V14.01,2013-09-08 08:45:00,
2013-09-08 01:50:00,77.3,41.7,29.93,West,263,2.0,8.0,28,0.00,,---,0.00,VWS V14.01,2013-09-08 08:50:00,
2013-09-08 01:55:00,77.1,41.5,29.93,West,269,3.0,8.0,28,0.00,,---,0.00,VWS V14.01,2013-09-08 08:55:00,
2013-09-08 02:00:00,77.4,40.8,29.93,WNW,285,5.0,7.0,27,0.00,,---,0.00,VWS V14.01,2013-09-08 09:00:00,
2013-09-08 02:05:00,77.3,41.7,29.93,WSW,238,6.0,7.0,28,0.00,,---,0.00,VWS V14.01,2013-09-08 09:05:00,
2013-09-08 02:10:00,76.8,42.2,29.93,West,276,2.0,7.0,29,0.00,,---,0.00,VWS V14.01,2013-09-08 09:10:00,
2013-09-08 02:15:00,76.7,41.2,29.93,WSW,238,4.0,7.0,28,0.00,,---,0.00,VWS V14.01,2013-09-08 09:15:00,
2013-09-08 02:20:00,76.7,41.2,29.93,WSW,238,5.0,8.0,28,0.00,,---,0.00,VWS V14.01,2013-09-08 09:20:00,
2013-09-08 02:25:00,76.8,41.3,29.93,WSW,250,3.0,8.0,28,0.00,,---,0.00,VWS V14.01,2013-09-08 09:25:00,
2013-09-08 02:30:00,76.8,41.3,29.92,West,279,3.0,6.0,28,0.00,,---,0.00,VWS V14.01,2013-09-08 09:30:00,
2013-09-08 02:35:00,76.8,41.3,29.92,West,274,2.0,6.0,28,0.00,,---,0.00,VWS V14.01,2013-09-08 09:35:00,
2013-09-08 02:40:00,76.8,41.3,29.92,WSW,249,4.0,7.0,28,0.00,,---,0.00,VWS V14.01,2013-09-08 09:40:00,
2013-09-08 02:45:00,76.8,41.3,29.92,West,276,4.0,7.0,28,0.00,,---,0.00,VWS V14.01,2013-09-08 09:45:00,
2013-09-08 02:50:00,76.8,41.3,29.92,WSW,248,4.0,7.0,28,0.00,,---,0.00,VWS V14.01,2013-09-08 09:50:00,
2013-09-08 02:55:00,76.8,41.3,29.92,WSW,252,7.0,7.0,28,0.00,,---,0.00,VWS V14.01,2013-09-08 09:55:00,
2013-09-08 03:00:00,77.0,40.5,29.92,West,276,3.0,8.0,27,0.00,,---,0.00,VWS V14.01,2013-09-08 10:00:00,
2013-09-08 03:05:00,77.0,40.5,29.92,West,274,4.0,8.0,27,0.00,,---,0.00,VWS V14.01,2013-09-08 10:05:00,
2013-09-08 03:10:00,77.0,40.5,29.92,WSW,252,5.0,8.0,27,0.00,,---,0.00,VWS V14.01,2013-09-08 10:10:00,
2013-09-08 03:15:00,76.9,40.4,29.92,WSW,238,5.0,8.0,27,0.00,,---,0.00,VWS V14.01,2013-09-08 10:15:00,
2013-09-08 03:20:00,76.8,40.3,29.92,WSW,245,4.0,8.0,27,0.00,,---,0.00,VWS V14.01,2013-09-08 10:20:00,
2013-09-08 03:25:00,76.6,40.2,29.92,SW,228,2.0,8.0,27,0.00,,---,0.00,VWS V14.01,2013-09-08 10:25:00,
2013-09-08 03:30:00,76.5,39.1,29.92,WSW,257,4.0,6.0,26,0.00,,---,0.00,VWS V14.01,2013-09-08 10:30:00,
2013-09-08 03:35:00,76.6,38.2,29.92,SW,224,3.0,7.0,25,0.00,,---,0.00,VWS V14.01,2013-09-08 10:35:00,
2013-09-08 03:40:00,76.3,37.9,29.92,WSW,251,5.0,9.0,25,0.00,,---,0.00,VWS V14.01,2013-09-08 10:40:00,
2013-09-08 03:45:00,76.3,37.9,29.91,WSW,257,3.0,9.0,25,0.00,,---,0.00,VWS V14.01,2013-09-08 10:45:00,
2013-09-08 03:50:00,75.8,38.5,29.92,WSW,252,6.0,9.0,26,0.00,,---,0.00,VWS V14.01,2013-09-08 10:50:00,
2013-09-08 03:55:00,75.8,38.5,29.92,WSW,252,4.0,9.0,26,0.00,,---,0.00,VWS V14.01,2013-09-08 10:55:00,
2013-09-08 04:00:00,76.1,38.8,29.91,West,274,2.0,8.0,26,0.00,,---,0.00,VWS V14.01,2013-09-08 11:00:00,
2013-09-08 04:05:00,76.7,38.3,29.92,WNW,287,2.0,8.0,25,0.00,,---,0.00,VWS V14.01,2013-09-08 11:05:00,
2013-09-08 04:10:00,77.0,38.5,29.91,WSW,242,2.0,8.0,25,0.00,,---,0.00,VWS V14.01,2013-09-08 11:10:00,
2013-09-08 04:15:00,76.4,38.0,29.92,West,262,1.0,8.0,25,0.00,,---,0.00,VWS V14.01,2013-09-08 11:15:00,
2013-09-08 04:20:00,75.4,39.1,29.92,WNW,283,4.0,8.0,27,0.00,,---,0.00,VWS V14.01,2013-09-08 11:20:00,
2013-09-08 04:25:00,74.8,37.7,29.91,West,264,4.0,8.0,26,0.00,,---,0.00,VWS V14.01,2013-09-08 11:25:00,
2013-09-08 04:30:00,74.9,37.7,29.91,WNW,283,3.0,6.0,26,0.00,,---,0.00,VWS V14.01,2013-09-08 11:30:00,
2013-09-08 04:35:00,75.1,37.9,29.91,WNW,287,8.0,11.0,26,0.00,,---,0.00,VWS V14.01,2013-09-08 11:35:00,
2013-09-08 04:40:00,74.8,38.6,29.91,West,276,3.0,11.0,27,0.00,,---,0.00,VWS V14.01,2013-09-08 11:40:00,
2013-09-08 04:45:00,75.6,39.3,29.91,WSW,240,3.0,11.0,27,0.00,,---,0.00,VWS V14.01,2013-09-08 11:45:00,
2013-09-08 04:50:00,76.3,38.9,29.91,WSW,240,2.0,12.0,26,0.00,,---,0.00,VWS V14.01,2013-09-08 11:50:00,
2013-09-08 04:55:00,76.6,39.2,29.91,NW,305,6.0,12.0,26,0.00,,---,0.00,VWS V14.01,2013-09-08 11:55:00,
2013-09-08 05:00:00,76.7,39.3,29.91,NW,305,2.0,8.0,26,0.00,,---,0.00,VWS V14.01,2013-09-08 12:00:00,
2013-09-08 05:05:00,76.8,38.3,29.92,WSW,240,6.0,9.0,25,0.00,,---,0.00,VWS V14.01,2013-09-08 12:05:00,
2013-09-08 05:10:00,76.8,39.3,29.91,WSW,237,3.0,9.0,26,0.00,,---,0.00,VWS V14.01,2013-09-08 12:10:00,
2013-09-08 05:15:00,76.7,39.3,29.91,SSW,201,7.0,10.0,26,0.00,,---,0.00,VWS V14.01,2013-09-08 12:15:00,
2013-09-08 05:20:00,76.8,38.3,29.91,West,266,3.0,11.0,25,0.00,,---,0.00,VWS V14.01,2013-09-08 12:20:00,
2013-09-08 05:25:00,76.6,38.2,29.92,West,276,3.0,11.0,25,0.00,,---,0.00,VWS V14.01,2013-09-08 12:25:00,
2013-09-08 05:30:00,76.4,39.0,29.92,West,269,3.0,5.0,26,0.00,,---,0.00,VWS V14.01,2013-09-08 12:30:00,
2013-09-08 05:35:00,76.0,38.7,29.91,SW,224,6.0,9.0,26,0.00,,---,0.00,VWS V14.01,2013-09-08 12:35:00,
2013-09-08 05:40:00,75.7,38.4,29.92,South,178,3.0,9.0,26,0.00,,---,0.00,VWS V14.01,2013-09-08 12:40:00,
2013-09-08 05:45:00,75.1,38.9,29.92,West,269,0.0,9.0,27,0.00,,---,0.00,VWS V14.01,2013-09-08 12:45:00,
2013-09-08 05:50:00,74.3,39.1,29.92,SSW,197,0.0,9.0,28,0.00,,---,0.00,VWS V14.01,2013-09-08 12:50:00,
2013-09-08 05:55:00,73.7,39.5,29.92,WNW,283,1.0,9.0,29,0.00,,---,0.00,VWS V14.01,2013-09-08 12:55:00,
2013-09-08 06:00:00,73.3,39.2,29.92,SSW,198,0.0,2.0,29,0.00,,---,0.00,VWS V14.01,2013-09-08 13:00:00,
2013-09-08 06:05:00,72.8,39.6,29.92,WSW,245,3.0,5.0,30,0.00,,---,0.00,VWS V14.01,2013-09-08 13:05:00,
2013-09-08 06:10:00,73.0,39.8,29.93,West,259,2.0,5.0,30,0.00,,---,0.00,VWS V14.01,2013-09-08 13:10:00,
2013-09-08 06:15:00,73.1,39.8,29.92,West,277,3.0,5.0,30,0.00,,---,0.00,VWS V14.01,2013-09-08 13:15:00,
2013-09-08 06:20:00,73.3,40.0,29.93,SW,226,2.0,5.0,30,0.00,,---,0.00,VWS V14.01,2013-09-08 13:20:00,
2013-09-08 06:25:00,73.3,40.0,29.92,West,274,3.0,6.0,30,0.00,,---,0.00,VWS V14.01,2013-09-08 13:25:00,
2013-09-08 06:30:00,73.3,40.9,29.93,West,269,3.0,7.0,31,0.00,,---,0.00,VWS V14.01,2013-09-08 13:30:00,
2013-09-08 06:35:00,73.6,40.3,29.93,West,274,1.0,7.0,30,0.00,,---,0.00,VWS V14.01,2013-09-08 13:35:00,
2013-09-08 06:40:00,73.4,41.0,29.93,West,281,4.0,7.0,31,0.00,,---,0.00,VWS V14.01,2013-09-08 13:40:00,
2013-09-08 06:45:00,73.3,40.9,29.93,WSW,257,4.0,7.0,31,0.00,,---,0.00,VWS V14.01,2013-09-08 13:45:00,
2013-09-08 06:50:00,73.3,40.9,29.93,WSW,252,3.0,7.0,31,0.00,,---,0.00,VWS V14.01,2013-09-08 13:50:00,
2013-09-08 06:55:00,73.5,41.0,29.93,West,281,2.0,7.0,31,0.00,,---,0.00,VWS V14.01,2013-09-08 13:55:00,
2013-09-08 07:00:00,73.9,40.5,29.93,WSW,245,4.0,5.0,30,0.00,,---,0.00,VWS V14.01,2013-09-08 14:00:00,
2013-09-08 07:05:00,74.4,40.1,29.93,WNW,284,3.0,7.0,29,0.00,,---,0.00,VWS V14.01,2013-09-08 14:05:00,
2013-09-08 07:10:00,74.8,39.5,29.93,WSW,245,3.0,7.0,28,0.00,,---,0.00,VWS V14.01,2013-09-08 14:10:00,
2013-09-08 07:15:00,75.1,40.7,29.93,NNW,330,4.0,9.0,29,0.00,,---,0.00,VWS V14.01,2013-09-08 14:15:00,
2013-09-08 07:20:00,75.4,40.1,29.93,West,270,3.0,9.0,28,0.00,,---,0.00,VWS V14.01,2013-09-08 14:20:00,
2013-09-08 07:25:00,75.8,40.4,29.93,WSW,258,4.0,9.0,28,0.00,,---,0.00,VWS V14.01,2013-09-08 14:25:00,
2013-09-08 07:30:00,76.2,40.8,29.94,SW,232,1.0,6.0,28,0.00,,---,0.00,VWS V14.01,2013-09-08 14:30:00,
2013-09-08 07:35:00,76.7,40.2,29.94,West,269,3.0,8.0,27,0.00,,---,0.00,VWS V14.01,2013-09-08 14:35:00,
2013-09-08 07:40:00,77.2,39.7,29.93,WNW,288,4.0,8.0,26,0.00,,---,0.00,VWS V14.01,2013-09-08 14:40:00,
2013-09-08 07:45:00,77.6,40.0,29.93,West,281,5.0,8.0,26,0.00,,---,0.00,VWS V14.01,2013-09-08 14:45:00,
2013-09-08 07:50:00,78.1,40.5,29.93,West,278,2.0,8.0,26,0.00,,---,0.00,VWS V14.01,2013-09-08 14:50:00,
2013-09-08 07:55:00,78.6,38.8,29.93,West,266,2.0,9.0,24,0.00,,---,0.00,VWS V14.01,2013-09-08 14:55:00,
2013-09-08 08:00:00,79.2,39.3,29.94,WSW,250,4.0,8.0,24,0.00,,---,0.00,VWS V14.01,2013-09-08 15:00:00,
2013-09-08 08:05:00,79.7,39.8,29.94,West,278,3.0,9.0,24,0.00,,---,0.00,VWS V14.01,2013-09-08 15:05:00,
2013-09-08 08:10:00,80.2,39.1,29.94,SSE,157,1.0,9.0,23,0.00,,---,0.00,VWS V14.01,2013-09-08 15:10:00,
2013-09-08 08:15:00,80.8,39.6,29.94,WSW,254,4.0,9.0,23,0.00,,---,0.00,VWS V14.01,2013-09-08 15:15:00,
2013-09-08 08:20:00,81.3,40.0,29.94,West,259,1.0,9.0,23,0.00,,---,0.00,VWS V14.01,2013-09-08 15:20:00,
2013-09-08 08:25:00,81.6,37.9,29.94,West,264,3.0,9.0,21,0.00,,---,0.00,VWS V14.01,2013-09-08 15:25:00,
2013-09-08 08:30:00,82.1,38.3,29.94,WNW,293,6.0,7.0,21,0.00,,---,0.00,VWS V14.01,2013-09-08 15:30:00,
2013-09-08 08:35:00,82.5,38.7,29.93,West,259,6.0,9.0,21,0.00,,---,0.00,VWS V14.01,2013-09-08 15:35:00,
2013-09-08 08:40:00,82.8,38.9,29.93,West,279,3.0,10.0,21,0.00,,---,0.00,VWS V14.01,2013-09-08 15:40:00,
2013-09-08 08:45:00,83.4,38.2,29.93,WNW,296,5.0,10.0,20,0.00,,---,0.00,VWS V14.01,2013-09-08 15:45:00,
2013-09-08 08:50:00,84.0,38.7,29.93,WNW,293,4.0,10.0,20,0.00,,---,0.00,VWS V14.01,2013-09-08 15:50:00,
2013-09-08 08:55:00,84.8,38.0,29.93,West,280,2.0,10.0,19,0.00,,---,0.00,VWS V14.01,2013-09-08 15:55:00,
2013-09-08 09:00:00,85.6,38.7,29.93,WSW,238,5.0,7.0,19,0.00,,---,0.00,VWS V14.01,2013-09-08 16:00:00,
2013-09-08 09:05:00,86.1,39.1,29.93,West,279,3.0,7.0,19,0.00,,---,0.00,VWS V14.01,2013-09-08 16:05:00,
2013-09-08 09:10:00,86.4,39.3,29.93,West,273,2.0,7.0,19,0.00,,---,0.00,VWS V14.01,2013-09-08 16:10:00,
2013-09-08 09:15:00,86.9,39.7,29.93,West,281,1.0,8.0,19,0.00,,---,0.00,VWS V14.01,2013-09-08 16:15:00,
2013-09-08 09:20:00,87.1,38.5,29.93,West,260,2.0,8.0,18,0.00,,---,0.00,VWS V14.01,2013-09-08 16:20:00,
2013-09-08 09:25:00,87.4,40.1,29.93,West,263,4.0,8.0,19,0.00,,---,0.00,VWS V14.01,2013-09-08 16:25:00,
2013-09-08 09:30:00,87.6,38.9,29.93,WNW,288,3.0,6.0,18,0.00,,---,0.00,VWS V14.01,2013-09-08 16:30:00,
2013-09-08 09:35:00,88.0,39.2,29.93,West,271,5.0,7.0,18,0.00,,---,0.00,VWS V14.01,2013-09-08 16:35:00,
2013-09-08 09:40:00,88.4,39.5,29.93,NW,319,2.0,7.0,18,0.00,,---,0.00,VWS V14.01,2013-09-08 16:40:00,
2013-09-08 09:45:00,89.1,38.7,29.93,WSW,256,1.0,7.0,17,0.00,,---,0.00,VWS V14.01,2013-09-08 16:45:00,
2013-09-08 09:50:00,89.5,39.0,29.93,West,259,4.0,7.0,17,0.00,,---,0.00,VWS V14.01,2013-09-08 16:50:00,
2013-09-08 09:55:00,90.1,39.5,29.93,West,264,1.0,7.0,17,0.00,,---,0.00,VWS V14.01,2013-09-08 16:55:00,
2013-09-08 10:00:00,90.4,39.7,29.93,WSW,253,3.0,6.0,17,0.00,,---,0.00,VWS V14.01,2013-09-08 17:00:00,
2013-09-08 10:05:00,90.9,38.5,29.93,WSW,255,1.0,8.0,16,0.00,,---,0.00,VWS V14.01,2013-09-08 17:05:00,
2013-09-08 10:10:00,90.9,38.5,29.93,East,87,1.0,8.0,16,0.00,,---,0.00,VWS V14.01,2013-09-08 17:10:00,
2013-09-08 10:15:00,91.1,38.7,29.93,SSW,209,4.0,8.0,16,0.00,,---,0.00,VWS V14.01,2013-09-08 17:15:00,
2013-09-08 10:20:00,92.1,39.5,29.93,WSW,256,2.0,8.0,16,0.00,,---,0.00,VWS V14.01,2013-09-08 17:20:00,
2013-09-08 10:25:00,92.3,39.7,29.93,SSW,208,4.0,8.0,16,0.00,,---,0.00,VWS V14.01,2013-09-08 17:25:00,
2013-09-08 10:30:00,92.1,37.9,29.93,SSE,152,4.0,5.0,15,0.00,,---,0.00,VWS V14.01,2013-09-08 17:30:00,
2013-09-08 10:35:00,91.6,39.1,29.93,West,276,1.0,5.0,16,0.00,,---,0.00,VWS V14.01,2013-09-08 17:35:00,
2013-09-08 10:40:00,92.0,37.8,29.93,ENE,68,0.0,5.0,15,0.00,,---,0.00,VWS V14.01,2013-09-08 17:40:00,
2013-09-08 10:45:00,92.5,38.2,29.93,SSE,149,2.0,5.0,15,0.00,,---,0.00,VWS V14.01,2013-09-08 17:45:00,
2013-09-08 10:50:00,93.1,38.7,29.93,SSE,159,1.0,5.0,15,0.00,,---,0.00,VWS V14.01,2013-09-08 17:50:00,
2013-09-08 10:55:00,93.8,39.2,29.93,South,178,0.0,5.0,15,0.00,,---,0.00,VWS V14.01,2013-09-08 17:55:00,
2013-09-08 11:00:00,94.8,38.2,29.92,SW,219,0.0,4.0,14,0.00,,---,0.00,VWS V14.01,2013-09-08 18:00:00,
2013-09-08 11:05:00,94.8,38.2,29.92,WSW,242,1.0,5.0,14,0.00,,---,0.00,VWS V14.01,2013-09-08 18:05:00,
2013-09-08 11:10:00,94.7,38.2,29.92,WSW,256,1.0,5.0,14,0.00,,---,0.00,VWS V14.01,2013-09-08 18:10:00,
2013-09-08 11:15:00,93.6,37.3,29.92,West,281,1.0,5.0,14,0.00,,---,0.00,VWS V14.01,2013-09-08 18:15:00,
2013-09-08 11:20:00,93.6,39.0,29.92,WSW,240,0.0,5.0,15,0.00,,---,0.00,VWS V14.01,2013-09-08 18:20:00,
2013-09-08 11:25:00,93.9,37.5,29.92,NW,305,0.0,5.0,14,0.00,,---,0.00,VWS V14.01,2013-09-08 18:25:00,
2013-09-08 11:30:00,94.9,38.3,29.92,SSW,204,1.0,1.0,14,0.00,,---,0.00,VWS V14.01,2013-09-08 18:30:00,
2013-09-08 11:35:00,96.4,37.6,29.92,South,187,4.0,5.0,13,0.00,,---,0.00,VWS V14.01,2013-09-08 18:35:00,
2013-09-08 11:40:00,96.2,37.4,29.92,ESE,107,0.0,5.0,13,0.00,,---,0.00,VWS V14.01,2013-09-08 18:40:00,
2013-09-08 11:45:00,96.0,39.2,29.91,WNW,302,0.0,8.0,14,0.00,,---,0.00,VWS V14.01,2013-09-08 18:45:00,
2013-09-08 11:50:00,95.5,38.8,29.91,NW,322,2.0,8.0,14,0.00,,---,0.00,VWS V14.01,2013-09-08 18:50:00,
2013-09-08 11:55:00,94.4,37.9,29.91,NNW,347,5.0,8.0,14,0.00,,---,0.00,VWS V14.01,2013-09-08 18:55:00,
2013-09-08 12:00:00,94.2,37.8,29.91,North,354,4.0,7.0,14,0.00,,---,0.00,VWS V14.01,2013-09-08 19:00:00,
2013-09-08 12:05:00,93.8,37.5,29.91,West,281,3.0,7.0,14,0.00,,---,0.00,VWS V14.01,2013-09-08 19:05:00,
2013-09-08 12:10:00,93.6,37.3,29.91,NW,316,3.0,7.0,14,0.00,,---,0.00,VWS V14.01,2013-09-08 19:10:00,
2013-09-08 12:15:00,93.3,38.8,29.91,West,269,2.0,8.0,15,0.00,,---,0.00,VWS V14.01,2013-09-08 19:15:00,
2013-09-08 12:20:00,93.7,37.4,29.91,ESE,110,2.0,8.0,14,0.00,,---,0.00,VWS V14.01,2013-09-08 19:20:00,
2013-09-08 12:25:00,93.9,37.5,29.90,East,101,2.0,8.0,14,0.00,,---,0.00,VWS V14.01,2013-09-08 19:25:00,
2013-09-08 12:30:00,94.6,38.1,29.90,NNE,12,1.0,4.0,14,0.00,,---,0.00,VWS V14.01,2013-09-08 19:30:00,
2013-09-08 12:35:00,95.9,39.1,29.90,SSW,212,1.0,5.0,14,0.00,,---,0.00,VWS V14.01,2013-09-08 19:35:00,
2013-09-08 12:40:00,96.7,39.7,29.90,NW,322,1.0,5.0,14,0.00,,---,0.00,VWS V14.01,2013-09-08 19:40:00,
2013-09-08 12:45:00,96.9,39.9,29.90,NW,308,6.0,7.0,14,0.00,,---,0.00,VWS V14.01,2013-09-08 19:45:00,
2013-09-08 12:49:00,95.7,38.9,29.90,West,259,6.0,7.0,14,0.00,,---,0.00,VWS V14.01,2013-09-08 19:49:00,
2013-09-08 12:54:00,95.4,38.7,29.90,SW,229,5.0,10.0,14,0.00,,---,0.00,VWS V14.01,2013-09-08 19:54:00,
2013-09-08 12:59:00,95.9,39.1,29.89,WSW,250,4.0,6.0,14,0.00,,---,0.00,VWS V14.01,2013-09-08 19:59:00,
2013-09-08 13:00:00,95.6,38.9,29.89,WSW,243,2.0,10.0,14,0.00,,---,0.00,VWS V14.01,2013-09-08 20:00:00,
2013-09-08 13:04:00,95.6,38.9,29.89,SW,235,0.0,6.0,14,0.00,,---,0.00,VWS V14.01,2013-09-08 20:04:00,
2013-09-08 13:09:00,96.0,39.2,29.89,WSW,256,4.0,7.0,14,0.00,,---,0.00,VWS V14.01,2013-09-08 20:09:00,
2013-09-08 13:14:00,96.0,39.2,29.89,SSW,198,2.0,7.0,14,0.00,,---,0.00,VWS V14.01,2013-09-08 20:14:00,
2013-09-08 13:19:00,96.9,39.9,29.89,WNW,283,6.0,9.0,14,0.00,,---,0.00,VWS V14.01,2013-09-08 20:19:00,
2013-09-08 13:24:00,97.1,40.0,29.88,West,267,3.0,9.0,14,0.00,,---,0.00,VWS V14.01,2013-09-08 20:24:00,
2013-09-08 13:29:00,97.6,38.5,29.88,NNE,25,2.0,6.0,13,0.00,,---,0.00,VWS V14.01,2013-09-08 20:29:00,
2013-09-08 13:30:00,97.4,40.3,29.88,ESE,105,1.0,9.0,14,0.00,,---,0.00,VWS V14.01,2013-09-08 20:30:00,
2013-09-08 13:34:00,97.4,38.4,29.88,WNW,290,7.0,19.0,13,0.00,,---,0.00,VWS V14.01,2013-09-08 20:34:00,
2013-09-08 13:39:00,97.0,40.0,29.88,WSW,239,5.0,19.0,14,0.00,,---,0.00,VWS V14.01,2013-09-08 20:39:00,
2013-09-08 13:44:00,96.9,39.9,29.88,NW,309,4.0,19.0,14,0.00,,---,0.00,VWS V14.01,2013-09-08 20:44:00,
2013-09-08 13:49:00,96.1,39.2,29.87,WNW,302,7.0,19.0,14,0.00,,---,0.00,VWS V14.01,2013-09-08 20:49:00,
2013-09-08 13:54:00,96.0,39.2,29.87,NW,325,5.0,19.0,14,0.00,,---,0.00,VWS V14.01,2013-09-08 20:54:00,
2013-09-08 13:59:00,96.1,39.2,29.87,NW,305,4.0,8.0,14,0.00,,---,0.00,VWS V14.01,2013-09-08 20:59:00,
2013-09-08 14:00:00,96.2,39.3,29.87,NW,314,5.0,19.0,14,0.00,,---,0.00,VWS V14.01,2013-09-08 21:00:00,
2013-09-08 14:04:00,96.1,41.0,29.87,West,266,5.0,8.0,15,0.00,,---,0.00,VWS V14.01,2013-09-08 21:04:00,
2013-09-08 14:09:00,96.4,39.5,29.87,NW,312,7.0,8.0,14,0.00,,---,0.00,VWS V14.01,2013-09-08 21:09:00,
2013-09-08 14:14:00,96.4,39.5,29.87,NNW,343,5.0,11.0,14,0.00,,---,0.00,VWS V14.01,2013-09-08 21:14:00,
2013-09-08 14:19:00,96.4,39.5,29.86,NW,320,5.0,12.0,14,0.00,,---,0.00,VWS V14.01,2013-09-08 21:19:00,
2013-09-08 14:24:00,96.2,39.3,29.86,NW,305,4.0,12.0,14,0.00,,---,0.00,VWS V14.01,2013-09-08 21:24:00,
2013-09-08 14:29:00,96.0,39.2,29.86,NNW,343,2.0,9.0,14,0.00,,---,0.00,VWS V14.01,2013-09-08 21:29:00,
2013-09-08 14:30:00,96.2,39.3,29.86,WSW,253,4.0,12.0,14,0.00,,---,0.00,VWS V14.01,2013-09-08 21:30:00,
2013-09-08 14:34:00,95.7,38.9,29.85,WNW,299,3.0,9.0,14,0.00,,---,0.00,VWS V14.01,2013-09-08 21:34:00,
2013-09-08 14:39:00,96.4,39.5,29.85,NW,312,3.0,10.0,14,0.00,,---,0.00,VWS V14.01,2013-09-08 21:39:00,
2013-09-08 14:44:00,96.8,39.8,29.85,SW,232,6.0,10.0,14,0.00,,---,0.00,VWS V14.01,2013-09-08 21:44:00,
2013-09-08 14:49:00,96.8,39.8,29.85,NNW,330,2.0,10.0,14,0.00,,---,0.00,VWS V14.01,2013-09-08 21:49:00,
2013-09-08 14:54:00,96.8,39.8,29.84,WNW,293,6.0,10.0,14,0.00,,---,0.00,VWS V14.01,2013-09-08 21:54:00,
2013-09-08 14:59:00,96.4,39.5,29.84,WNW,299,6.0,14.0,14,0.00,,---,0.00,VWS V14.01,2013-09-08 21:59:00,
2013-09-08 15:00:00,96.6,39.7,29.84,NW,320,9.0,10.0,14,0.00,,---,0.00,VWS V14.01,2013-09-08 22:00:00,
2013-09-08 15:04:00,96.7,41.5,29.84,SSW,212,6.0,14.0,15,0.00,,---,0.00,VWS V14.01,2013-09-08 22:04:00,
2013-09-08 15:09:00,96.1,41.0,29.84,WNW,302,5.0,14.0,15,0.00,,---,0.00,VWS V14.01,2013-09-08 22:09:00,
2013-09-08 15:14:00,96.4,39.5,29.84,West,278,9.0,14.0,14,0.00,,---,0.00,VWS V14.01,2013-09-08 22:14:00,
2013-09-08 15:19:00,96.5,39.6,29.84,SW,235,11.0,14.0,14,0.00,,---,0.00,VWS V14.01,2013-09-08 22:19:00,
2013-09-08 15:24:00,96.1,41.0,29.84,WSW,242,6.0,14.0,15,0.00,,---,0.00,VWS V14.01,2013-09-08 22:24:00,
2013-09-08 15:29:00,96.1,41.0,29.84,West,271,4.0,7.0,15,0.00,,---,0.00,VWS V14.01,2013-09-08 22:29:00,
2013-09-08 15:30:00,95.9,40.9,29.84,West,260,6.0,14.0,15,0.00,,---,0.00,VWS V14.01,2013-09-08 22:30:00,
2013-09-08 15:34:00,96.0,41.0,29.83,WNW,302,7.0,12.0,15,0.00,,---,0.00,VWS V14.01,2013-09-08 22:34:00,
2013-09-08 15:39:00,96.2,41.1,29.83,West,276,3.0,12.0,15,0.00,,---,0.00,VWS V14.01,2013-09-08 22:39:00,
2013-09-08 15:44:00,95.9,40.9,29.83,WNW,291,6.0,12.0,15,0.00,,---,0.00,VWS V14.01,2013-09-08 22:44:00,
2013-09-08 15:49:00,95.6,40.6,29.83,WNW,302,9.0,16.0,15,0.00,,---,0.00,VWS V14.01,2013-09-08 22:49:00,
2013-09-08 15:54:00,95.6,42.3,29.83,West,281,12.0,16.0,16,0.00,,---,0.00,VWS V14.01,2013-09-08 22:54:00,
2013-09-08 15:59:00,94.9,41.7,29.83,NW,305,11.0,11.0,16,0.00,,---,0.00,VWS V14.01,2013-09-08 22:59:00,
2013-09-08 16:00:00,94.9,40.1,29.83,WNW,289,6.0,16.0,15,0.00,,---,0.00,VWS V14.01,2013-09-08 23:00:00,
2013-09-08 16:04:00,94.9,41.7,29.83,NW,309,11.0,13.0,16,0.00,,---,0.00,VWS V14.01,2013-09-08 23:04:00,
2013-09-08 16:09:00,95.0,40.2,29.83,WNW,286,10.0,13.0,15,0.00,,---,0.00,VWS V14.01,2013-09-08 23:09:00,
2013-09-08 16:14:00,94.7,41.6,29.83,NW,314,8.0,13.0,16,0.00,,---,0.00,VWS V14.01,2013-09-08 23:14:00,
2013-09-08 16:19:00,94.5,41.4,29.83,NW,312,7.0,14.0,16,0.00,,---,0.00,VWS V14.01,2013-09-08 23:19:00,
2013-09-08 16:24:00,94.2,41.2,29.83,NW,318,6.0,18.0,16,0.00,,---,0.00,VWS V14.01,2013-09-08 23:24:00,
2013-09-08 16:29:00,94.3,41.3,29.83,West,271,8.0,12.0,16,0.00,,---,0.00,VWS V14.01,2013-09-08 23:29:00,
2013-09-08 16:30:00,94.0,41.0,29.83,NW,305,5.0,18.0,16,0.00,,---,0.00,VWS V14.01,2013-09-08 23:30:00,
2013-09-08 16:34:00,94.6,41.5,29.83,West,263,8.0,12.0,16,0.00,,---,0.00,VWS V14.01,2013-09-08 23:34:00,
2013-09-08 16:39:00,94.7,41.6,29.83,NW,312,7.0,13.0,16,0.00,,---,0.00,VWS V14.01,2013-09-08 23:39:00,
2013-09-08 16:44:00,93.9,41.0,29.83,NW,305,9.0,13.0,16,0.00,,---,0.00,VWS V14.01,2013-09-08 23:44:00,
2013-09-08 16:49:00,93.6,40.7,29.83,NW,311,7.0,13.0,16,0.00,,---,0.00,VWS V14.01,2013-09-08 23:49:00,
2013-09-08 16:54:00,93.3,40.5,29.83,WNW,289,4.0,13.0,16,0.00,,---,0.00,VWS V14.01,2013-09-08 23:54:00,
2013-09-08 16:59:00,93.0,40.2,29.82,WNW,302,6.0,11.0,16,0.00,,---,0.00,VWS V14.01,2013-09-08 23:59:00,
2013-09-08 17:00:00,93.1,41.9,29.83,NW,309,6.0,13.0,17,0.00,,---,0.00,VWS V14.01,2013-09-09 00:00:00,
2013-09-08 17:04:00,92.6,41.5,29.82,West,264,4.0,14.0,17,0.00,,---,0.00,VWS V14.01,2013-09-09 00:04:00,
2013-09-08 17:09:00,92.6,39.9,29.83,WNW,294,4.0,15.0,16,0.00,,---,0.00,VWS V14.01,2013-09-09 00:09:00,
2013-09-08 17:14:00,92.4,39.8,29.83,NW,322,5.0,15.0,16,0.00,,---,0.00,VWS V14.01,2013-09-09 00:14:00,
2013-09-08 17:19:00,91.8,40.8,29.83,West,270,9.0,15.0,17,0.00,,---,0.00,VWS V14.01,2013-09-09 00:19:00,
2013-09-08 17:24:00,91.5,40.6,29.83,West,268,4.0,15.0,17,0.00,,---,0.00,VWS V14.01,2013-09-09 00:24:00,
2013-09-08 17:29:00,91.2,40.3,29.83,NW,309,7.0,12.0,17,0.00,,---,0.00,VWS V14.01,2013-09-09 00:29:00,
2013-09-08 17:30:00,91.4,40.5,29.83,NW,321,9.0,15.0,17,0.00,,---,0.00,VWS V14.01,2013-09-09 00:30:00,
2013-09-08 17:34:00,91.0,40.2,29.83,NW,316,9.0,12.0,17,0.00,,---,0.00,VWS V14.01,2013-09-09 00:34:00,
2013-09-08 17:39:00,90.5,41.3,29.83,West,262,4.0,15.0,18,0.00,,---,0.00,VWS V14.01,2013-09-09 00:39:00,
2013-09-08 17:44:00,90.3,39.6,29.83,NW,309,10.0,16.0,17,0.00,,---,0.00,VWS V14.01,2013-09-09 00:44:00,
2013-09-08 17:49:00,90.2,41.0,29.83,NW,317,7.0,16.0,18,0.00,,---,0.00,VWS V14.01,2013-09-09 00:49:00,
2013-09-08 17:54:00,89.9,40.8,29.83,WNW,297,7.0,16.0,18,0.00,,---,0.00,VWS V14.01,2013-09-09 00:54:00,
2013-09-08 17:59:00,89.6,40.5,29.83,NW,311,9.0,11.0,18,0.00,,---,0.00,VWS V14.01,2013-09-09 00:59:00,
2013-09-08 18:00:00,89.7,40.6,29.83,West,267,7.0,16.0,18,0.00,,---,0.00,VWS V14.01,2013-09-09 01:00:00,
2013-09-08 18:04:00,89.2,38.7,29.83,NW,324,4.0,11.0,17,0.00,,---,0.00,VWS V14.01,2013-09-09 01:04:00,
2013-09-08 18:09:00,88.9,38.5,29.83,NW,304,8.0,13.0,17,0.00,,---,0.00,VWS V14.01,2013-09-09 01:09:00,
2013-09-08 18:14:00,88.5,38.2,29.83,NW,316,5.0,13.0,17,0.00,,---,0.00,VWS V14.01,2013-09-09 01:14:00,
2013-09-08 18:19:00,88.4,38.1,29.83,West,264,3.0,13.0,17,0.00,,---,0.00,VWS V14.01,2013-09-09 01:19:00,
2013-09-08 18:24:00,88.1,39.3,29.84,NW,322,5.0,13.0,18,0.00,,---,0.00,VWS V14.01,2013-09-09 01:24:00,
2013-09-08 18:29:00,87.6,38.9,29.84,WNW,288,9.0,13.0,18,0.00,,---,0.00,VWS V14.01,2013-09-09 01:29:00,
2013-09-08 18:30:00,87.8,39.1,29.84,WNW,286,11.0,13.0,18,0.00,,---,0.00,VWS V14.01,2013-09-09 01:30:00,
2013-09-08 18:34:00,87.1,38.5,29.84,West,277,8.0,13.0,18,0.00,,---,0.00,VWS V14.01,2013-09-09 01:34:00,
2013-09-08 18:39:00,86.9,39.7,29.84,West,273,5.0,13.0,19,0.00,,---,0.00,VWS V14.01,2013-09-09 01:39:00,
2013-09-08 18:44:00,86.6,38.1,29.84,West,263,5.0,13.0,18,0.00,,---,0.00,VWS V14.01,2013-09-09 01:44:00,
2013-09-08 18:49:00,86.0,40.3,29.84,WSW,243,8.0,13.0,20,0.00,,---,0.00,VWS V14.01,2013-09-09 01:49:00,
2013-09-08 18:54:00,85.2,39.7,29.84,WNW,291,3.0,13.0,20,0.00,,---,0.00,VWS V14.01,2013-09-09 01:54:00,
2013-09-08 18:59:00,84.7,40.5,29.84,WSW,258,5.0,8.0,21,0.00,,---,0.00,VWS V14.01,2013-09-09 01:59:00,
2013-09-08 19:00:00,84.8,39.3,29.84,WSW,257,8.0,13.0,20,0.00,,---,0.00,VWS V14.01,2013-09-09 02:00:00,
2013-09-08 19:04:00,84.1,40.0,29.84,WSW,245,5.0,9.0,21,0.00,,---,0.00,VWS V14.01,2013-09-09 02:04:00,
2013-09-08 19:09:00,83.9,39.8,29.84,WNW,286,6.0,10.0,21,0.00,,---,0.00,VWS V14.01,2013-09-09 02:09:00,
2013-09-08 19:14:00,83.6,40.8,29.84,West,260,4.0,10.0,22,0.00,,---,0.00,VWS V14.01,2013-09-09 02:14:00,
2013-09-08 19:19:00,83.5,40.7,29.84,WSW,252,4.0,11.0,22,0.00,,---,0.00,VWS V14.01,2013-09-09 02:19:00,
2013-09-08 19:24:00,83.3,40.5,29.85,NW,315,4.0,11.0,22,0.00,,---,0.00,VWS V14.01,2013-09-09 02:24:00,
2013-09-08 19:29:00,83.1,40.4,29.84,WNW,288,3.0,7.0,22,0.00,,---,0.00,VWS V14.01,2013-09-09 02:29:00,
2013-09-08 19:30:00,83.2,41.6,29.85,WNW,283,3.0,11.0,23,0.00,,---,0.00,VWS V14.01,2013-09-09 02:30:00,
2013-09-08 19:34:00,83.1,40.4,29.85,NW,309,6.0,11.0,22,0.00,,---,0.00,VWS V14.01,2013-09-09 02:34:00,
2013-09-08 19:39:00,82.9,41.3,29.85,West,269,5.0,11.0,23,0.00,,---,0.00,VWS V14.01,2013-09-09 02:39:00,
2013-09-08 19:44:00,82.5,41.0,29.85,WNW,300,3.0,11.0,23,0.00,,---,0.00,VWS V14.01,2013-09-09 02:44:00,
2013-09-08 19:49:00,82.3,41.9,29.85,West,267,0.0,11.0,24,0.00,,---,0.00,VWS V14.01,2013-09-09 02:49:00,
2013-09-08 19:54:00,82.2,41.8,29.85,WSW,246,4.0,11.0,24,0.00,,---,0.00,VWS V14.01,2013-09-09 02:54:00,
2013-09-08 19:59:00,81.9,41.6,29.85,West,274,1.0,3.0,24,0.00,,---,0.00,VWS V14.01,2013-09-09 02:59:00,
2013-09-08 20:00:00,82.0,41.7,29.85,NW,321,1.0,11.0,24,0.00,,---,0.00,VWS V14.01,2013-09-09 03:00:00,
2013-09-08 20:04:00,81.7,42.5,29.85,West,278,2.0,7.0,25,0.00,,---,0.00,VWS V14.01,2013-09-09 03:04:00,
2013-09-08 20:09:00,81.6,42.4,29.85,West,269,3.0,8.0,25,0.00,,---,0.00,VWS V14.01,2013-09-09 03:09:00,
2013-09-08 20:14:00,81.3,42.2,29.85,West,274,2.0,8.0,25,0.00,,---,0.00,VWS V14.01,2013-09-09 03:14:00,
2013-09-08 20:19:00,80.9,41.8,29.86,WSW,238,1.0,8.0,25,0.00,,---,0.00,VWS V14.01,2013-09-09 03:19:00,
2013-09-08 20:24:00,80.5,42.5,29.86,WSW,257,0.0,8.0,26,0.00,,---,0.00,VWS V14.01,2013-09-09 03:24:00,
2013-09-08 20:29:00,80.2,42.2,29.86,West,269,2.0,4.0,26,0.00,,---,0.00,VWS V14.01,2013-09-09 03:29:00,
2013-09-08 20:30:00,80.2,42.2,29.86,WNW,302,1.0,8.0,26,0.00,,---,0.00,VWS V14.01,2013-09-09 03:30:00,
2013-09-08 20:34:00,80.0,42.1,29.86,West,260,2.0,4.0,26,0.00,,---,0.00,VWS V14.01,2013-09-09 03:34:00,
2013-09-08 20:39:00,80.1,42.2,29.86,West,273,1.0,5.0,26,0.00,,---,0.00,VWS V14.01,2013-09-09 03:39:00,
2013-09-08 20:44:00,79.8,42.9,29.87,WSW,253,1.0,5.0,27,0.00,,---,0.00,VWS V14.01,2013-09-09 03:44:00,
2013-09-08 20:49:00,79.4,42.5,29.86,West,277,0.0,5.0,27,0.00,,---,0.00,VWS V14.01,2013-09-09 03:49:00,
2013-09-08 20:54:00,79.0,43.2,29.86,WSW,243,1.0,5.0,28,0.00,,---,0.00,VWS V14.01,2013-09-09 03:54:00,
2013-09-08 20:59:00,78.8,43.0,29.86,WSW,245,1.0,2.0,28,0.00,,---,0.00,VWS V14.01,2013-09-09 03:59:00,
2013-09-08 21:00:00,78.8,43.0,29.86,WSW,239,1.0,5.0,28,0.00,,---,0.00,VWS V14.01,2013-09-09 04:00:00,
2013-09-08 21:01:00,78.8,42.0,29.87,West,261,0.0,2.0,27,0.00,,---,0.00,VWS V14.01,2013-09-09 04:01:00,
2013-09-08 21:02:00,78.7,41.9,29.87,West,276,0.0,2.0,27,0.00,,---,0.00,VWS V14.01,2013-09-09 04:02:00,
2013-09-08 21:07:00,78.7,42.9,29.87,West,266,1.0,3.0,28,0.00,,---,0.00,VWS V14.01,2013-09-09 04:07:00,
2013-09-08 21:12:00,78.7,41.9,29.87,West,277,3.0,4.0,27,0.00,,---,0.00,VWS V14.01,2013-09-09 04:12:00,
2013-09-08 21:17:00,78.6,42.8,29.88,West,281,3.0,4.0,28,0.00,,---,0.00,VWS V14.01,2013-09-09 04:17:00,
2013-09-08 21:22:00,78.6,43.7,29.88,West,259,1.0,5.0,29,0.00,,---,0.00,VWS V14.01,2013-09-09 04:22:00,
2013-09-08 21:27:00,78.6,43.7,29.88,West,266,1.0,5.0,29,0.00,,---,0.00,VWS V14.01,2013-09-09 04:27:00,
2013-09-08 21:30:00,78.6,43.7,29.88,West,259,0.0,5.0,29,0.00,,---,0.00,VWS V14.01,2013-09-09 04:30:00,
2013-09-08 21:32:00,78.6,43.7,29.88,West,260,0.0,2.0,29,0.00,,---,0.00,VWS V14.01,2013-09-09 04:32:00,
2013-09-08 21:37:00,78.5,42.7,29.89,WSW,245,0.0,3.0,28,0.00,,---,0.00,VWS V14.01,2013-09-09 04:37:00,
2013-09-08 21:42:00,78.0,43.2,29.89,West,267,0.0,3.0,29,0.00,,---,0.00,VWS V14.01,2013-09-09 04:42:00,
2013-09-08 21:47:00,77.6,42.9,29.89,West,270,0.0,3.0,29,0.00,,---,0.00,VWS V14.01,2013-09-09 04:47:00,
2013-09-08 21:52:00,77.0,43.2,29.89,West,270,0.0,3.0,30,0.00,,---,0.00,VWS V14.01,2013-09-09 04:52:00,
2013-09-08 21:56:00,76.5,42.8,29.89,WSW,252,0.0,3.0,30,0.00,,---,0.00,VWS V14.01,2013-09-09 04:56:00,
2013-09-08 22:00:00,76.4,42.7,29.89,WSW,252,0.0,3.0,30,0.00,,---,0.00,VWS V14.01,2013-09-09 05:00:00,
2013-09-08 22:01:00,76.1,42.5,29.89,WSW,252,0.0,1.0,30,0.00,,---,0.00,VWS V14.01,2013-09-09 05:01:00,
2013-09-08 22:06:00,75.8,43.0,29.89,SW,228,0.0,1.0,31,0.00,,---,0.00,VWS V14.01,2013-09-09 05:06:00,
2013-09-08 22:11:00,75.8,43.0,29.90,SW,215,0.0,3.0,31,0.00,,---,0.00,VWS V14.01,2013-09-09 05:11:00,
2013-09-08 22:16:00,76.2,42.5,29.90,NE,46,2.0,4.0,30,0.00,,---,0.00,VWS V14.01,2013-09-09 05:16:00,
2013-09-08 22:21:00,77.4,42.7,29.91,SW,229,0.0,5.0,29,0.00,,---,0.00,VWS V14.01,2013-09-09 05:21:00,
2013-09-08 22:26:00,77.4,42.7,29.91,SSE,156,0.0,5.0,29,0.00,,---,0.00,VWS V14.01,2013-09-09 05:26:00,
2013-09-08 22:30:00,77.2,42.5,29.91,SSE,156,0.0,5.0,29,0.00,,---,0.00,VWS V14.01,2013-09-09 05:30:00,
2013-09-08 22:31:00,77.3,43.5,29.91,WSW,246,0.0,2.0,30,0.00,,---,0.00,VWS V14.01,2013-09-09 05:31:00,
2013-09-08 22:36:00,76.8,42.2,29.91,NW,322,0.0,3.0,29,0.00,,---,0.00,VWS V14.01,2013-09-09 05:36:00,
2013-09-08 22:41:00,76.6,42.9,29.91,NW,322,0.0,3.0,30,0.00,,---,0.00,VWS V14.01,2013-09-09 05:41:00,
2013-09-08 22:46:00,76.2,42.5,29.91,NW,314,1.0,3.0,30,0.00,,---,0.00,VWS V14.01,2013-09-09 05:46:00,
2013-09-08 22:51:00,75.9,42.3,29.92,WNW,293,0.0,3.0,30,0.00,,---,0.00,VWS V14.01,2013-09-09 05:51:00,
2013-09-08 22:56:00,76.3,43.5,29.92,North,357,1.0,5.0,31,0.00,,---,0.00,VWS V14.01,2013-09-09 05:56:00,
2013-09-08 23:00:00,76.4,44.4,29.92,NNE,18,3.0,5.0,32,0.00,,---,0.00,VWS V14.01,2013-09-09 06:00:00,
2013-09-08 23:01:00,76.6,44.6,29.92,NNE,13,1.0,3.0,32,0.00,,---,0.00,VWS V14.01,2013-09-09 06:01:00,
2013-09-08 23:06:00,76.6,43.7,29.92,NE,34,1.0,5.0,31,0.00,,---,0.00,VWS V14.01,2013-09-09 06:06:00,
2013-09-08 23:11:00,77.8,48.0,29.92,NNE,16,5.0,10.0,35,0.00,,---,0.00,VWS V14.01,2013-09-09 06:11:00,
2013-09-08 23:16:00,78.6,47.9,29.92,NE,39,2.0,11.0,34,0.00,,---,0.00,VWS V14.01,2013-09-09 06:16:00,
2013-09-08 23:21:00,79.2,51.4,29.92,NE,39,7.0,11.0,38,0.00,,---,0.00,VWS V14.01,2013-09-09 06:21:00,
2013-09-08 23:26:00,79.6,51.8,29.92,NE,56,5.0,11.0,38,0.00,,---,0.00,VWS V14.01,2013-09-09 06:26:00,
2013-09-08 23:30:00,79.6,51.8,29.92,ENE,77,2.0,11.0,38,0.00,,---,0.00,VWS V14.01,2013-09-09 06:30:00,
2013-09-08 23:31:00,79.6,52.5,29.92,ENE,72,5.0,7.0,39,0.00,,---,0.00,VWS V14.01,2013-09-09 06:31:00,
2013-09-08 23:36:00,79.5,53.1,29.92,East,82,7.0,9.0,40,0.00,,---,0.00,VWS V14.01,2013-09-09 06:36:00,
2013-09-08 23:41:00,79.0,52.6,29.92,ENE,73,3.0,9.0,40,0.00,,---,0.00,VWS V14.01,2013-09-09 06:41:00,
2013-09-08 23:46:00,78.4,50.0,29.92,East,100,3.0,9.0,37,0.00,,---,0.00,VWS V14.01,2013-09-09 06:46:00,
2013-09-08 23:51:00,77.7,46.3,29.92,ESE,110,4.0,9.0,33,0.00,,---,0.00,VWS V14.01,2013-09-09 06:51:00,
2013-09-08 23:56:00,77.1,45.0,29.92,ESE,109,3.0,9.0,32,0.00,,---,0.00,VWS V14.01,2013-09-09 06:56:00,